Time,TemperatureF,DewpointF,PressureIn,WindDirection,WindDirectionDegrees,WindSpeedMPH,WindSpeedGustMPH,Humidity,HourlyPrecipIn,Conditions,Clouds,dailyrainin,SolarRadiationWatts/m^2,SoftwareType,DateUTC
2013-05-26 00:11:00,35.0,34.0,-100.00,SE,142,0.0,3.0,98,0.00,,,0.00,1.000000,,2013-05-26 08:11:00,
2013-05-26 00:21:00,35.0,34.0,-100.00,SE,142,0.0,3.0,98,0.00,,,0.00,1.000000,,2013-05-26 08:21:00,
2013-05-26 00:52:00,34.0,34.0,-100.00,ENE,74,0.0,1.0,99,0.00,,,0.00,0.000000,,2013-05-26 08:52:00,
2013-05-26 01:11:00,34.0,34.0,-100.00,ENE,74,0.0,1.0,99,0.00,,,0.00,0.000000,,2013-05-26 09:11:00,
2013-05-26 01:21:00,34.0,34.0,-100.00,ENE,74,0.0,1.0,99,0.00,,,0.00,0.000000,,2013-05-26 09:21:00,
2013-05-26 01:33:00,34.0,34.0,-100.00,ENE,74,0.0,1.0,99,0.00,,,0.00,0.000000,,2013-05-26 09:33:00,
2013-05-26 01:42:00,34.0,34.0,-100.00,ENE,74,0.0,1.0,99,0.00,,,0.00,0.000000,,2013-05-26 09:42:00,
2013-05-26 01:52:00,37.0,37.0,-100.00,East,84,0.0,2.0,99,0.00,,,0.00,0.000000,,2013-05-26 09:52:00,
2013-05-26 02:12:00,37.0,37.0,-100.00,East,84,0.0,2.0,99,0.00,,,0.00,0.000000,,2013-05-26 10:12:00,
2013-05-26 02:22:00,37.0,37.0,-100.00,East,84,0.0,2.0,99,0.00,,,0.00,0.000000,,2013-05-26 10:22:00,
2013-05-26 02:32:00,37.0,37.0,-100.00,East,84,0.0,2.0,99,0.00,,,0.00,0.000000,,2013-05-26 10:32:00,
2013-05-26 02:42:00,37.0,37.0,-100.00,East,84,0.0,2.0,99,0.00,,,0.00,0.000000,,2013-05-26 10:42:00,
2013-05-26 02:52:00,37.0,37.0,-100.00,East,93,0.0,4.0,99,0.00,,,0.00,0.000000,,2013-05-26 10:52:00,
2013-05-26 03:11:00,37.0,37.0,-100.00,East,93,0.0,4.0,99,0.00,,,0.00,0.000000,,2013-05-26 11:11:00,
2013-05-26 03:22:00,37.0,37.0,-100.00,East,93,0.0,4.0,99,0.00,,,0.00,0.000000,,2013-05-26 11:22:00,
2013-05-26 03:32:00,37.0,37.0,-100.00,East,93,0.0,4.0,99,0.00,,,0.00,0.000000,,2013-05-26 11:32:00,
2013-05-26 03:42:00,37.0,37.0,-100.00,East,93,0.0,4.0,99,0.00,,,0.00,0.000000,,2013-05-26 11:42:00,
2013-05-26 03:52:00,32.0,32.0,-100.00,East,94,0.0,4.0,99,0.00,,,0.00,0.000000,,2013-05-26 11:52:00,
2013-05-26 04:11:00,32.0,32.0,-100.00,East,94,0.0,4.0,99,0.00,,,0.00,0.000000,,2013-05-26 12:11:00,
2013-05-26 04:21:00,32.0,32.0,-100.00,East,94,0.0,4.0,99,0.00,,,0.00,0.000000,,2013-05-26 12:21:00,
2013-05-26 04:32:00,32.0,32.0,-100.00,East,94,0.0,4.0,99,0.00,,,0.00,0.000000,,2013-05-26 12:32:00,
2013-05-26 04:41:00,32.0,32.0,-100.00,East,94,0.0,4.0,99,0.00,,,0.00,0.000000,,2013-05-26 12:41:00,
2013-05-26 04:52:00,31.0,31.0,-100.00,East,91,0.0,2.0,100,0.00,,,0.00,0.000000,,2013-05-26 12:52:00,
2013-05-26 05:11:00,31.0,31.0,-100.00,East,91,0.0,2.0,100,0.00,,,0.00,0.000000,,2013-05-26 13:11:00,
2013-05-26 05:21:00,31.0,31.0,-100.00,East,91,0.0,2.0,100,0.00,,,0.00,0.000000,,2013-05-26 13:21:00,
2013-05-26 05:32:00,31.0,31.0,-100.00,East,91,0.0,2.0,100,0.00,,,0.00,0.000000,,2013-05-26 13:32:00,
2013-05-26 05:42:00,31.0,31.0,-100.00,East,91,0.0,2.0,100,0.00,,,0.00,0.000000,,2013-05-26 13:42:00,
2013-05-26 06:11:00,30.0,30.0,-100.00,ESE,102,0.0,2.0,100,0.00,,,0.00,7.000000,,2013-05-26 14:11:00,
2013-05-26 06:21:00,30.0,30.0,-100.00,ESE,102,0.0,2.0,100,0.00,,,0.00,7.000000,,2013-05-26 14:21:00,
2013-05-26 06:32:00,30.0,30.0,-100.00,ESE,102,0.0,2.0,100,0.00,,,0.00,7.000000,,2013-05-26 14:32:00,
2013-05-26 06:41:00,30.0,30.0,-100.00,ESE,102,0.0,2.0,100,0.00,,,0.00,7.000000,,2013-05-26 14:41:00,
2013-05-26 06:51:00,30.0,30.0,-100.00,ESE,102,0.0,2.0,100,0.00,,,0.00,7.000000,,2013-05-26 14:51:00,
2013-05-26 06:52:00,33.0,33.0,-100.00,ESE,109,1.0,3.0,100,0.00,,,0.00,20.000000,,2013-05-26 14:52:00,
2013-05-26 07:12:00,33.0,33.0,-100.00,ESE,109,1.0,3.0,100,0.00,,,0.00,20.000000,,2013-05-26 15:12:00,
2013-05-26 07:22:00,33.0,33.0,-100.00,ESE,109,1.0,3.0,100,0.00,,,0.00,20.000000,,2013-05-26 15:22:00,
2013-05-26 07:33:00,33.0,33.0,-100.00,ESE,109,1.0,3.0,100,0.00,,,0.00,20.000000,,2013-05-26 15:33:00,
2013-05-26 07:43:00,33.0,33.0,-100.00,ESE,109,1.0,3.0,100,0.00,,,0.00,20.000000,,2013-05-26 15:43:00,
2013-05-26 07:52:00,40.0,40.0,-100.00,SSE,150,0.0,3.0,100,0.00,,,0.00,64.000000,,2013-05-26 15:52:00,
2013-05-26 08:12:00,40.0,40.0,-100.00,SSE,150,0.0,3.0,100,0.00,,,0.00,64.000000,,2013-05-26 16:12:00,
2013-05-26 08:23:00,40.0,40.0,-100.00,SSE,150,0.0,3.0,100,0.00,,,0.00,64.000000,,2013-05-26 16:23:00,
2013-05-26 08:33:00,40.0,40.0,-100.00,SSE,150,0.0,3.0,100,0.00,,,0.00,64.000000,,2013-05-26 16:33:00,
2013-05-26 08:42:00,40.0,40.0,-100.00,SSE,150,0.0,3.0,100,0.00,,,0.00,64.000000,,2013-05-26 16:42:00,
2013-05-26 08:52:00,42.0,42.0,-100.00,West,268,1.0,4.0,100,0.00,,,0.00,124.000000,,2013-05-26 16:52:00,
2013-05-26 09:11:00,42.0,42.0,-100.00,West,268,1.0,4.0,100,0.00,,,0.00,124.000000,,2013-05-26 17:11:00,
2013-05-26 09:22:00,42.0,42.0,-100.00,West,268,1.0,4.0,100,0.00,,,0.00,124.000000,,2013-05-26 17:22:00,
2013-05-26 09:32:00,42.0,42.0,-100.00,West,268,1.0,4.0,100,0.00,,,0.00,124.000000,,2013-05-26 17:32:00,
2013-05-26 09:42:00,42.0,42.0,-100.00,West,268,1.0,4.0,100,0.00,,,0.00,124.000000,,2013-05-26 17:42:00,
2013-05-26 09:52:00,50.0,43.0,-100.00,SW,227,2.0,4.0,76,0.00,,,0.00,336.000000,,2013-05-26 17:52:00,
2013-05-26 10:12:00,50.0,43.0,-100.00,SW,227,2.0,4.0,76,0.00,,,0.00,336.000000,,2013-05-26 18:12:00,
2013-05-26 10:21:00,50.0,43.0,-100.00,SW,227,2.0,4.0,76,0.00,,,0.00,336.000000,,2013-05-26 18:21:00,
2013-05-26 10:31:00,50.0,43.0,-100.00,SW,227,2.0,4.0,76,0.00,,,0.00,336.000000,,2013-05-26 18:31:00,
2013-05-26 10:42:00,50.0,43.0,-100.00,SW,227,2.0,4.0,76,0.00,,,0.00,336.000000,,2013-05-26 18:42:00,
2013-05-26 10:52:00,52.0,42.0,-100.00,West,266,1.0,5.0,68,0.00,,,0.00,283.000000,,2013-05-26 18:52:00,
2013-05-26 11:11:00,52.0,42.0,-100.00,West,266,1.0,5.0,68,0.00,,,0.00,283.000000,,2013-05-26 19:11:00,
2013-05-26 11:22:00,52.0,42.0,-100.00,West,266,1.0,5.0,68,0.00,,,0.00,283.000000,,2013-05-26 19:22:00,
2013-05-26 11:32:00,52.0,42.0,-100.00,West,266,1.0,5.0,68,0.00,,,0.00,283.000000,,2013-05-26 19:32:00,
2013-05-26 11:42:00,52.0,42.0,-100.00,West,266,1.0,5.0,68,0.00,,,0.00,283.000000,,2013-05-26 19:42:00,
2013-05-26 11:52:00,51.0,40.0,-100.00,West,261,2.0,6.0,66,-99.99,,,0.00,251.000000,,2013-05-26 19:52:00,
2013-05-26 12:11:00,51.0,40.0,-100.00,West,261,2.0,6.0,66,-99.99,,,0.00,251.000000,,2013-05-26 20:11:00,
2013-05-26 12:21:00,51.0,40.0,-100.00,West,261,2.0,6.0,66,-99.99,,,0.00,251.000000,,2013-05-26 20:21:00,
2013-05-26 12:32:00,51.0,40.0,-100.00,West,261,2.0,6.0,66,-99.99,,,0.00,251.000000,,2013-05-26 20:32:00,
2013-05-26 12:41:00,51.0,40.0,-100.00,West,261,2.0,6.0,66,-99.99,,,0.00,251.000000,,2013-05-26 20:41:00,
2013-05-26 13:11:00,54.0,40.0,-100.00,WNW,297,1.0,6.0,60,0.00,,,0.00,366.000000,,2013-05-26 21:11:00,
2013-05-26 13:22:00,54.0,40.0,-100.00,WNW,297,1.0,6.0,60,0.00,,,0.00,366.000000,,2013-05-26 21:22:00,
2013-05-26 14:12:00,56.0,42.0,-100.00,WNW,284,2.0,5.0,59,0.00,,,0.00,354.000000,,2013-05-26 22:12:00,
2013-05-26 14:23:00,56.0,42.0,-100.00,WNW,284,2.0,5.0,59,0.00,,,0.00,354.000000,,2013-05-26 22:23:00,
2013-05-26 15:11:00,57.0,42.0,-100.00,WNW,285,2.0,6.0,57,-99.99,,,0.00,434.000000,,2013-05-26 23:11:00,
2013-05-26 15:22:00,57.0,42.0,-100.00,WNW,285,2.0,6.0,57,-99.99,,,0.00,434.000000,,2013-05-26 23:22:00,
2013-05-26 15:52:00,53.0,39.0,-100.00,West,261,2.0,6.0,60,-99.99,,,0.00,258.000000,,2013-05-26 23:52:00,
2013-05-26 16:11:00,53.0,39.0,-100.00,West,261,2.0,6.0,60,-99.99,,,0.00,258.000000,,2013-05-27 00:11:00,
2013-05-26 16:21:00,53.0,39.0,-100.00,West,261,2.0,6.0,60,-99.99,,,0.00,258.000000,,2013-05-27 00:21:00,
2013-05-26 16:31:00,53.0,39.0,-100.00,West,261,2.0,6.0,60,-99.99,,,0.00,258.000000,,2013-05-27 00:31:00,
2013-05-26 16:41:00,53.0,39.0,-100.00,West,261,2.0,6.0,60,-99.99,,,0.00,258.000000,,2013-05-27 00:41:00,
2013-05-26 16:52:00,47.0,41.0,-100.00,West,269,0.0,5.0,81,0.01,,,0.01,136.000000,,2013-05-27 00:52:00,
2013-05-26 17:11:00,47.0,41.0,-100.00,West,269,0.0,5.0,81,0.01,,,0.01,136.000000,,2013-05-27 01:11:00,
2013-05-26 17:22:00,47.0,41.0,-100.00,West,269,0.0,5.0,81,0.01,,,0.01,136.000000,,2013-05-27 01:22:00,
2013-05-26 17:31:00,47.0,41.0,-100.00,West,269,0.0,5.0,81,0.01,,,0.01,136.000000,,2013-05-27 01:31:00,
2013-05-26 17:42:00,47.0,41.0,-100.00,West,269,0.0,5.0,81,0.01,,,0.01,136.000000,,2013-05-27 01:42:00,
2013-05-26 17:52:00,47.0,45.0,-100.00,North,349,0.0,3.0,91,0.02,,,0.03,116.000000,,2013-05-27 01:52:00,
2013-05-26 18:11:00,47.0,45.0,-100.00,North,349,0.0,3.0,91,0.02,,,0.03,116.000000,,2013-05-27 02:11:00,
2013-05-26 18:21:00,47.0,45.0,-100.00,North,349,0.0,3.0,91,0.02,,,0.03,116.000000,,2013-05-27 02:21:00,
2013-05-26 18:32:00,47.0,45.0,-100.00,North,349,0.0,3.0,91,0.02,,,0.03,116.000000,,2013-05-27 02:32:00,
2013-05-26 18:42:00,47.0,45.0,-100.00,North,349,0.0,3.0,91,0.02,,,0.03,116.000000,,2013-05-27 02:42:00,
2013-05-26 18:52:00,48.0,45.0,-100.00,West,275,1.0,4.0,91,0.02,,,0.05,151.000000,,2013-05-27 02:52:00,
2013-05-26 19:11:00,48.0,45.0,-100.00,West,275,1.0,4.0,91,0.02,,,0.05,151.000000,,2013-05-27 03:11:00,
2013-05-26 19:21:00,48.0,45.0,-100.00,West,275,1.0,4.0,91,0.02,,,0.05,151.000000,,2013-05-27 03:21:00,
2013-05-26 19:33:00,48.0,45.0,-100.00,West,275,1.0,4.0,91,0.02,,,0.05,151.000000,,2013-05-27 03:33:00,
2013-05-26 19:42:00,48.0,45.0,-100.00,West,275,1.0,4.0,91,0.02,,,0.05,151.000000,,2013-05-27 03:42:00,
2013-05-26 19:52:00,46.0,44.0,-100.00,WSW,248,1.0,4.0,91,0.00,,,0.05,123.000000,,2013-05-27 03:52:00,
2013-05-26 20:12:00,46.0,44.0,-100.00,WSW,248,1.0,4.0,91,0.00,,,0.05,123.000000,,2013-05-27 04:12:00,
2013-05-26 20:23:00,46.0,44.0,-100.00,WSW,248,1.0,4.0,91,0.00,,,0.05,123.000000,,2013-05-27 04:23:00,
2013-05-26 20:33:00,46.0,44.0,-100.00,WSW,248,1.0,4.0,91,0.00,,,0.05,123.000000,,2013-05-27 04:33:00,
2013-05-26 20:42:00,46.0,44.0,-100.00,WSW,248,1.0,4.0,91,0.00,,,0.05,123.000000,,2013-05-27 04:42:00,
2013-05-26 20:52:00,47.0,43.0,-100.00,NW,321,0.0,3.0,86,0.00,,,0.05,119.000000,,2013-05-27 04:52:00,
2013-05-26 21:12:00,47.0,43.0,-100.00,NW,321,0.0,3.0,86,0.00,,,0.05,119.000000,,2013-05-27 05:12:00,
2013-05-26 21:22:00,47.0,43.0,-100.00,NW,321,0.0,3.0,86,0.00,,,0.05,119.000000,,2013-05-27 05:22:00,
2013-05-26 21:32:00,47.0,43.0,-100.00,NW,321,0.0,3.0,86,0.00,,,0.05,119.000000,,2013-05-27 05:32:00,
2013-05-26 21:42:00,47.0,43.0,-100.00,NW,321,0.0,3.0,86,0.00,,,0.05,119.000000,,2013-05-27 05:42:00,
2013-05-26 21:52:00,45.0,43.0,-100.00,NNW,331,0.0,3.0,91,0.00,,,0.05,43.000000,,2013-05-27 05:52:00,
2013-05-26 22:11:00,45.0,43.0,-100.00,NNW,331,0.0,3.0,91,0.00,,,0.05,43.000000,,2013-05-27 06:11:00,
2013-05-26 22:21:00,45.0,43.0,-100.00,NNW,331,0.0,3.0,91,0.00,,,0.05,43.000000,,2013-05-27 06:21:00,
2013-05-26 22:32:00,45.0,43.0,-100.00,NNW,331,0.0,3.0,91,0.00,,,0.05,43.000000,,2013-05-27 06:32:00,
2013-05-26 22:41:00,45.0,43.0,-100.00,NNW,331,0.0,3.0,91,0.00,,,0.05,43.000000,,2013-05-27 06:41:00,
2013-05-26 22:52:00,43.0,42.0,-100.00,West,265,0.0,1.0,95,0.00,,,0.05,14.000000,,2013-05-27 06:52:00,
2013-05-26 23:11:00,43.0,42.0,-100.00,West,265,0.0,1.0,95,0.00,,,0.05,14.000000,,2013-05-27 07:11:00,
2013-05-26 23:21:00,43.0,42.0,-100.00,West,265,0.0,1.0,95,0.00,,,0.05,14.000000,,2013-05-27 07:21:00,
2013-05-26 23:31:00,43.0,42.0,-100.00,West,265,0.0,1.0,95,0.00,,,0.05,14.000000,,2013-05-27 07:31:00,
2013-05-26 23:41:00,43.0,42.0,-100.00,West,265,0.0,1.0,95,0.00,,,0.05,14.000000,,2013-05-27 07:41:00,